Theta_e
299 298 300 307 313 314 316 322 326 327 327 328 329 328 329 328 328 328 330 329 329 329 330 331 332 334 335 336 337 339 341 342 342 341 340 340 340 343 343 342 340 340 342 342 341 342 341 340 338 339 337 336 341 338 338 336 338 339 339 338 337 336 333 333 334 335 336 333 333 333 333 334 336 334 335 335 337 336 336 334 337 328 326 327 330
297 298 299 300 313 313 315 321 324 326 328 329 328 328 327 327 327 327 327 328 328 328 329 329 330 332 333 334 335 337 338 339 340 340 341 339 341 342 342 342 341 342 340 342 342 341 342 342 340 339 338 336 339 341 339 338 339 338 338 338 337 334 332 330 331 332 332 332 332 332 332 334 332 331 334 337 336 336 337 335 334 327 324 333 336
296 298 297 298 312 312 314 321 322 325 327 328 327 327 326 327 327 327 327 327 328 328 328 328 329 330 331 333 333 334 336 337 339 340 340 340 341 341 341 342 343 341 340 343 343 341 341 341 341 340 340 339 341 341 339 337 338 339 338 338 336 333 332 331 330 331 330 330 330 331 330 330 331 329 330 338 335 335 335 334 333 334 327 335 337
296 297 296 300 310 310 312 319 321 323 325 326 326 326 326 326 326 327 327 327 327 327 328 329 328 329 330 330 331 332 334 335 336 338 340 338 339 341 342 342 342 343 341 340 340 341 341 341 341 341 340 339 341 341 337 336 337 339 339 338 336 333 332 332 331 333 336 336 337 335 331 326 332 335 338 338 335 336 334 332 332 335 336 336 336
296 296 296 296 297 304 312 318 319 321 324 324 325 325 325 325 326 326 327 326 326 326 326 327 327 328 328 329 329 330 332 333 334 336 338 339 338 339 339 341 341 341 339 342 342 342 340 340 342 341 341 340 341 339 339 336 334 335 338 338 336 333 332 332 332 336 337 337 334 329 317 319 324 338 338 337 335 335 334 334 334 334 334 332 331
296 295 296 295 296 297 312 316 317 319 322 323 323 324 323 324 325 325 325 326 326 326 326 326 326 327 327 327 328 329 330 331 332 334 335 337 339 339 338 339 340 340 340 342 339 342 342 340 339 341 341 340 340 338 338 336 334 333 336 336 336 334 332 332 332 335 335 334 332 319 316 317 320 332 338 336 336 336 336 336 336 335 332 331 328
295 296 296 295 296 299 312 314 317 318 320 321 322 322 323 324 323 323 324 325 325 325 326 326 327 327 326 325 326 327 329 330 331 332 333 335 337 337 339 339 339 339 341 342 342 339 341 341 338 340 341 340 339 337 337 336 335 333 335 335 335 335 332 332 332 334 334 327 314 315 317 318 318 324 336 334 332 331 334 336 337 333 328 328 328
294 295 295 295 295 303 312 313 315 316 318 319 321 322 322 322 322 323 323 324 324 325 324 324 325 325 325 326 324 326 327 328 329 331 331 332 333 334 336 338 339 338 338 340 341 341 339 339 338 340 340 340 339 337 338 336 335 334 335 334 334 334 333 333 333 335 334 318 316 315 317 317 318 318 334 332 331 328 326 330 330 327 328 328 327
294 294 294 293 293 308 310 311 313 315 317 317 320 321 322 322 322 322 323 323 323 323 323 323 323 324 324 325 325 325 325 326 328 329 330 330 331 332 334 335 337 339 339 339 341 340 340 339 339 340 340 339 338 338 338 336 335 335 335 334 334 334 333 335 336 336 326 318 317 315 315 318 318 316 331 327 328 328 328 330 334 329 327 328 326
292 293 293 291 292 309 309 310 312 314 315 315 318 319 320 321 321 321 321 321 322 322 323 322 323 323 324 324 324 324 323 324 326 327 328 328 329 330 332 333 334 336 338 339 341 341 340 341 340 340 339 338 339 338 337 335 335 335 335 335 334 334 334 335 336 334 316 318 315 315 315 329 317 318 325 328 329 328 332 334 333 331 330 327 328
292 293 293 291 295 306 308 309 311 312 314 314 315 316 317 317 319 319 318 318 320 321 322 322 322 323 323 322 322 324 323 323 323 325 326 327 328 329 331 331 332 334 336 338 339 338 340 340 341 340 340 341 338 338 338 336 335 335 336 335 334 333 334 334 333 316 314 314 314 312 322 331 319 316 331 329 329 328 330 332 332 330 328 328 328
293 293 292 293 302 305 306 308 309 311 312 312 313 314 314 315 316 318 318 318 319 320 321 322 322 322 322 322 322 322 322 323 322 322 324 325 326 327 328 330 331 332 334 335 337 338 339 339 339 339 339 340 340 338 339 336 336 335 335 335 334 333 334 334 320 315 312 313 312 314 315 324 321 320 332 330 329 329 331 332 331 331 329 330 332
293 292 292 292 292 304 305 306 308 309 310 310 311 311 312 314 315 317 317 317 318 319 319 320 321 321 321 321 321 320 320 321 322 322 322 323 323 324 325 327 329 331 332 333 335 337 338 340 340 340 340 341 340 338 338 337 336 335 335 335 334 333 334 333 318 315 313 311 312 319 316 321 321 330 332 333 330 330 332 332 333 331 330 332 335
292 292 292 292 294 301 304 304 306 307 308 308 309 310 311 312 313 315 315 315 316 317 318 319 320 320 320 319 319 319 319 319 320 320 320 320 321 322 322 324 327 328 330 332 334 336 337 339 339 340 340 340 340 339 338 337 336 336 335 334 334 334 334 333 324 317 317 314 318 318 317 322 319 331 332 334 333 334 334 331 332 332 332 333 335
291 292 293 293 290 292 301 303 304 306 305 306 307 308 309 310 311 313 313 313 314 314 316 317 318 318 318 318 317 317 318 317 317 317 317 318 318 319 320 322 323 325 327 330 332 333 335 337 339 339 338 338 337 337 337 337 336 335 335 335 335 334 332 324 321 314 317 318 318 322 318 319 330 332 333 333 334 334 335 333 333 333 333 333 335
292 293 292 290 290 290 290 299 301 304 304 305 305 306 307 308 310 311 311 311 312 312 314 316 316 316 315 315 316 316 316 316 316 316 315 316 316 316 317 319 321 322 325 328 330 331 333 335 338 337 339 339 339 338 337 337 336 336 337 336 335 333 331 325 318 314 315 318 318 322 319 319 332 333 333 334 334 334 335 335 335 335 334 334 334
293 295 290 290 290 289 290 292 297 302 301 302 303 304 306 307 308 309 309 309 309 310 312 313 313 313 313 313 313 313 313 313 314 313 313 313 314 315 315 317 319 321 323 325 328 330 332 334 336 338 340 338 339 338 337 337 337 337 336 335 334 332 330 324 317 315 316 320 321 321 321 322 332 333 333 333 333 333 333 335 337 334 335 333 335
291 291 289 289 289 290 291 289 291 290 292 296 299 302 304 306 307 306 307 307 307 307 308 308 309 310 310 310 310 311 311 311 311 310 311 311 312 312 314 316 317 318 320 323 325 328 331 332 334 335 337 338 338 338 338 337 337 337 336 334 332 331 329 324 317 315 315 324 319 321 321 331 334 334 333 333 332 333 332 333 336 337 336 333 333
289 290 289 289 289 289 289 289 291 290 290 291 292 294 302 304 305 305 306 306 306 305 305 305 306 307 307 307 308 308 308 308 308 309 309 309 311 312 312 313 315 317 318 320 323 326 328 330 331 333 336 338 339 337 337 337 336 336 335 333 331 329 328 324 318 315 317 319 316 320 322 333 336 336 333 333 333 333 333 332 336 337 333 335 334
289 291 289 289 289 289 289 289 289 290 290 290 292 292 297 303 303 303 304 304 304 304 304 303 303 304 304 305 305 303 303 302 306 303 306 309 309 308 311 312 314 315 316 318 320 323 326 329 330 332 335 337 337 338 336 335 336 335 333 331 330 328 323 318 316 315 315 316 320 318 329 335 337 335 333 333 333 333 333 333 334 334 335 334 334
291 290 289 289 289 289 289 288 289 289 290 290 292 292 295 300 298 300 302 302 303 303 302 301 301 300 300 302 302 298 300 299 299 300 305 304 307 308 309 311 311 313 314 316 319 322 325 328 330 332 333 336 335 336 335 334 335 334 331 329 327 322 316 316 316 318 318 319 323 319 330 334 336 334 334 332 332 333 333 333 333 335 335 334 333
289 290 290 289 289 289 288 289 289 289 289 291 292 292 294 295 292 292 296 297 299 300 298 297 299 296 299 298 297 299 298 298 300 303 302 304 305 307 308 309 310 311 313 315 317 320 323 326 329 331 333 334 334 334 333 333 333 332 329 326 325 318 317 317 319 319 319 320 321 321 330 333 336 334 333 334 333 332 332 333 333 333 333 333 334
289 289 289 290 289 288 289 288 288 289 289 290 292 292 291 291 291 292 294 297 297 297 295 296 296 296 296 296 297 297 298 299 299 302 303 305 304 305 307 308 309 310 312 314 316 319 321 324 328 330 332 332 334 332 331 331 331 331 328 326 321 318 319 319 318 319 319 320 317 328 332 333 334 335 335 335 333 333 333 332 333 333 333 334 334
288 288 289 291 289 288 289 288 290 289 289 290 292 290 290 291 290 291 292 293 294 295 295 295 296 296 296 296 296 297 298 298 301 303 303 300 300 303 305 306 307 308 309 311 313 315 320 324 327 329 330 331 332 331 331 330 330 329 327 323 319 319 319 318 317 316 316 319 319 330 330 331 332 333 334 332 334 333 332 332 332 333 333 334 333
288 290 290 289 288 288 289 288 288 289 289 290 291 289 292 289 289 290 292 293 293 295 296 295 295 295 296 296 296 297 298 298 298 298 299 299 300 300 301 302 302 301 306 306 309 312 317 322 326 328 328 329 329 330 330 329 328 327 323 320 319 318 317 316 316 317 317 318 322 329 330 330 331 332 333 332 332 333 331 332 332 332 333 333 333
288 290 288 288 288 289 288 288 289 288 289 289 289 292 291 288 288 290 292 291 294 295 295 295 295 295 295 296 297 297 297 297 298 298 298 299 300 300 301 302 302 302 304 305 309 313 316 321 326 328 328 328 329 328 329 328 327 324 321 319 317 316 316 315 316 316 316 317 318 323 327 330 330 330 331 332 332 331 331 331 332 333 333 333 332
287 287 288 287 290 289 288 288 288 288 289 290 289 288 287 288 288 291 292 290 294 294 294 294 295 295 295 296 296 296 296 297 297 298 298 299 300 300 301 302 302 303 304 306 308 312 317 321 326 328 328 327 328 328 328 328 326 321 319 317 315 315 314 314 314 314 313 313 315 319 324 328 330 331 331 332 333 333 333 333 332 334 334 333 333
286 288 287 287 289 288 288 288 288 290 289 290 289 287 287 288 289 292 289 292 294 293 293 295 296 295 296 296 297 297 297 296 297 298 299 300 300 301 302 302 303 304 305 307 309 313 317 322 326 328 326 325 326 327 326 326 323 320 317 315 313 313 312 312 312 311 311 310 311 316 319 323 326 330 331 332 332 332 333 333 333 333 334 334 332
287 288 288 287 288 290 289 288 288 288 289 290 288 287 287 287 287 288 288 294 290 291 294 295 295 295 295 296 297 296 297 297 297 298 300 300 301 302 302 303 304 304 306 308 311 313 317 323 326 326 325 323 321 319 319 318 317 316 314 312 311 311 310 309 307 306 307 307 308 311 314 318 321 324 328 329 331 331 332 332 333 333 334 334 333
288 287 287 288 287 289 289 288 288 289 291 289 288 288 287 286 287 288 287 291 289 291 293 294 294 295 295 296 296 297 297 298 299 300 301 301 302 303 304 304 305 306 307 308 313 315 317 322 325 325 321 318 316 315 313 311 310 310 310 309 308 307 307 306 305 304 304 304 305 306 310 313 315 318 322 326 328 330 332 333 332 333 334 334 333
288 288 288 288 290 289 289 288 288 292 291 288 289 289 288 286 288 287 287 287 289 291 291 292 293 294 295 296 297 297 298 300 301 301 302 304 305 306 307 308 307 307 308 311 314 317 320 321 322 318 315 313 312 312 310 307 306 305 305 304 304 304 303 303 303 304 303 303 303 303 305 308 311 313 317 320 324 327 330 333 333 335 335 335 334
287 289 288 288 288 289 288 289 289 290 292 288 290 288 287 286 288 286 286 287 289 289 289 290 292 293 295 296 297 298 299 300 301 302 304 306 307 308 309 311 311 313 313 314 317 316 314 313 312 311 309 309 308 306 305 303 302 302 303 302 303 302 302 302 302 302 302 302 302 302 302 303 305 308 311 314 318 323 327 331 332 334 336 337 335
288 288 288 288 288 288 290 290 289 289 287 288 288 288 286 287 287 286 287 289 287 287 287 288 289 292 293 295 296 297 300 300 301 303 306 305 306 307 308 309 310 311 313 313 312 312 312 311 309 309 307 306 304 303 302 301 300 300 300 300 301 300 301 300 300 300 300 300 300 300 300 301 301 304 306 309 312 317 323 329 331 334 335 336 334
289 288 288 289 290 291 290 291 292 290 291 288 291 287 287 287 290 285 288 286 286 285 288 287 289 290 292 293 294 296 299 300 301 303 305 304 305 305 306 306 308 309 310 309 308 308 307 306 306 305 304 303 302 302 300 299 299 299 299 299 299 299 299 298 298 298 298 298 298 298 299 299 300 300 301 304 308 313 317 324 329 331 333 333 332
288 288 287 288 289 289 291 291 292 289 288 286 287 288 288 287 285 286 286 285 286 284 285 286 287 288 289 291 293 294 296 298 300 302 304 304 303 303 303 304 305 307 306 306 305 305 305 304 303 301 301 300 299 299 298 297 297 296 297 298 297 298 298 297 297 297 297 297 297 297 297 298 298 299 299 300 303 308 313 317 323 327 328 329 330
288 288 288 289 288 288 289 288 288 288 288 289 287 287 287 286 286 291 286 284 284 284 284 285 286 287 288 289 291 293 295 296 298 301 303 303 302 302 302 303 303 304 303 303 304 303 302 302 302 302 299 298 298 296 297 296 296 295 296 296 296 296 296 296 295 295 296 296 295 296 296 296 297 298 299 299 299 301 308 312 316 320 324 326 327
288 288 288 288 288 288 289 287 288 289 288 287 287 287 287 286 286 286 285 285 283 283 284 284 285 285 286 287 289 292 293 294 295 299 302 301 301 301 302 302 303 302 301 301 301 301 300 300 299 300 299 296 296 295 295 295 294 294 294 294 295 295 294 295 295 295 295 294 294 294 294 294 296 297 296 297 298 298 302 307 310 312 315 323 324
289 290 289 288 288 288 288 290 291 289 287 287 288 287 288 286 286 286 289 284 283 283 284 283 284 284 285 286 288 289 292 292 293 296 300 301 301 300 301 302 302 301 300 300 299 299 299 298 296 297 297 297 295 294 293 294 294 293 293 294 294 294 294 294 295 295 294 294 294 293 293 293 294 294 295 296 296 297 298 301 304 306 308 314 321
289 288 287 287 287 287 289 288 290 288 287 286 286 289 287 286 285 285 285 284 284 284 284 283 284 284 284 285 287 288 290 291 292 293 296 299 299 300 300 300 301 301 300 299 299 299 298 297 296 296 296 295 294 294 294 294 294 293 293 293 293 293 294 295 294 294 293 293 294 294 293 293 293 294 294 294 295 295 297 297 298 299 301 308 313
288 288 290 287 287 287 286 287 288 287 287 287 287 287 286 286 286 285 286 286 285 287 286 283 284 284 286 285 286 286 287 290 291 292 293 297 297 298 298 299 300 300 299 298 298 298 297 296 296 296 295 295 296 295 295 294 294 293 293 292 293 294 293 294 294 293 294 293 293 294 293 294 293 293 293 294 294 295 295 296 297 297 299 302 307
287 286 287 288 287 288 287 288 288 287 287 287 286 287 285 286 283 284 283 285 285 287 285 284 285 285 285 284 285 285 286 287 290 290 291 293 295 297 297 296 297 297 298 298 298 298 298 297 297 297 296 295 295 297 297 298 296 294 294 293 293 293 293 293 293 293 293 293 294 293 293 292 292 292 292 293 293 294 294 295 295 297 297 298 300
289 288 287 287 287 286 287 288 288 287 286 286 286 287 284 285 284 284 282 284 283 283 283 284 286 286 285 284 285 284 285 286 288 289 289 290 291 294 295 296 295 295 297 298 298 298 297 297 297 296 297 296 295 296 298 299 296 294 294 294 295 293 292 292 292 292 292 293 293 293 292 292 291 292 293 293 293 293 293 294 295 296 296 296 297
286 287 287 287 287 287 287 288 288 288 288 288 289 287 285 286 285 285 284 284 282 283 283 285 284 284 284 284 284 284 284 285 285 288 288 288 289 291 292 294 295 296 294 294 295 296 296 296 296 296 295 296 296 296 298 299 295 294 295 294 291 292 292 292 292 292 292 292 293 292 292 291 290 291 291 292 292 292 293 293 293 294 294 295 296
287 287 286 286 287 290 288 288 289 288 288 288 292 289 289 288 287 287 286 284 285 287 284 282 284 285 286 284 283 283 283 284 284 285 288 286 287 288 289 291 292 295 294 293 293 294 295 295 295 295 295 293 293 295 297 297 296 296 293 292 293 292 293 293 290 292 291 291 291 291 292 290 290 290 291 290 290 291 292 293 292 293 293 294 295
287 287 288 287 289 289 288 288 288 289 288 290 289 288 288 286 285 286 286 284 283 282 283 284 284 286 286 284 284 282 283 284 284 284 287 286 285 286 287 288 289 291 293 294 294 294 294 292 292 293 292 293 293 294 295 296 296 296 297 294 291 290 291 288 287 290 289 289 290 290 290 291 290 290 290 289 289 290 290 291 291 292 293 293 294
287 288 287 288 286 288 287 287 287 288 288 288 287 288 288 286 284 284 285 283 284 285 285 285 285 284 284 284 283 282 282 283 283 284 284 288 284 285 285 287 287 289 291 289 290 293 294 294 293 291 291 291 293 294 294 295 295 294 293 295 295 293 290 286 289 289 285 286 289 288 290 290 290 290 290 289 289 289 290 289 290 291 292 292 293
289 288 287 288 287 287 287 287 288 288 288 288 287 291 287 285 284 284 283 283 282 283 281 282 282 284 284 283 283 282 282 282 283 282 283 285 284 284 284 285 286 287 290 287 287 288 290 291 294 293 292 294 294 294 294 294 296 293 293 294 295 294 291 288 288 287 288 286 284 286 287 288 289 288 288 288 288 288 288 288 288 289 289 291 291
288 287 288 288 287 288 287 287 288 291 290 288 287 288 287 286 284 283 285 283 283 285 286 285 284 285 284 283 282 282 282 282 282 282 282 283 287 284 283 284 285 286 288 284 284 285 287 288 290 291 293 294 294 294 293 295 295 295 294 292 293 293 292 293 292 293 292 289 288 285 284 284 285 286 287 287 287 286 286 286 287 287 287 288 288
288 287 288 288 288 287 287 287 288 288 289 288 289 286 290 287 285 284 283 287 286 286 286 287 285 283 282 283 282 282 282 282 281 282 282 282 287 285 282 283 283 285 287 284 283 283 284 284 286 287 286 289 291 293 293 294 295 294 293 293 292 292 292 293 291 292 290 287 287 282 282 280 281 282 283 284 285 284 285 285 286 286 286 286 287
287 287 288 287 287 286 287 288 288 288 288 286 288 288 286 289 285 284 284 285 285 285 283 283 284 282 282 283 282 282 282 282 281 281 282 282 282 284 283 283 283 286 289 282 282 282 282 282 282 284 285 287 284 288 291 291 293 294 293 292 289 289 291 290 289 287 287 290 289 286 282 280 281 281 281 281 282 282 282 283 283 283 283 284 284
287 286 287 286 286 286 286 287 288 287 288 288 286 287 285 285 287 285 284 284 285 283 284 285 284 284 284 284 283 283 282 282 281 282 281 281 281 287 284 284 285 287 286 282 282 282 283 283 282 282 282 285 284 284 287 286 288 289 290 290 290 291 290 288 285 284 284 283 282 281 279 279 280 279 278 279 282 281 281 281 281 282 282 282 282
Wind_Speed
6 9 8 12 19 21 21 21 22 23 22 22 22 22 23 24 24 24 23 23 23 23 23 24 24 24 23 24 23 23 23 22 18 15 11 12 12 14 13 11 11 10 11 10 9 9 9 9 8 7 6 7 9 6 6 5 5 8 6 6 7 7 6 5 4 5 9 7 7 7 7 8 8 7 8 9 10 10 9 10 7 2 2 3 7
10 9 8 10 19 21 22 21 22 23 23 24 23 23 23 23 23 23 23 23 23 23 23 23 24 24 23 24 23 23 23 23 20 17 14 12 12 14 14 14 12 13 13 11 11 10 10 11 10 9 9 8 8 8 7 6 4 5 6 7 8 7 6 4 4 3 4 7 7 7 7 10 8 7 9 10 10 10 9 10 8 4 0 6 7
6 7 7 9 19 21 22 21 22 22 24 24 24 25 24 23 23 21 21 22 23 22 23 23 23 23 23 22 23 23 23 22 22 21 17 14 14 15 14 16 13 13 16 14 13 12 12 12 11 11 11 10 9 10 7 7 7 6 8 8 9 8 7 6 5 6 6 7 7 7 5 4 5 5 6 11 10 9 8 9 8 5 2 9 9
7 8 7 10 17 19 21 21 22 22 24 23 23 23 23 23 22 21 20 21 20 22 21 21 23 23 23 22 22 23 23 22 23 22 21 15 14 14 14 16 16 14 15 14 12 12 13 13 12 12 12 10 10 10 7 6 8 8 10 10 8 8 8 7 7 5 4 7 7 5 2 3 3 6 11 10 10 9 8 8 7 7 9 9 10
8 7 6 7 8 12 20 21 21 21 22 22 22 21 21 22 22 22 21 21 20 21 22 21 19 20 22 22 22 21 23 22 21 22 21 20 17 14 14 14 16 16 16 14 13 12 13 14 14 13 12 11 11 9 10 8 7 9 10 10 9 9 9 8 8 5 4 7 7 5 3 3 1 8 10 10 9 8 6 7 7 8 10 8 8
7 6 6 6 6 9 18 20 20 20 20 21 21 21 21 20 21 21 21 21 21 21 22 22 22 20 20 21 21 22 21 22 21 21 21 19 20 19 14 13 12 15 16 13 15 14 14 14 13 14 13 12 13 11 10 9 8 8 10 10 10 9 8 10 9 5 5 6 7 3 2 2 1 4 11 10 9 9 8 7 9 9 9 8 7
5 5 6 7 6 9 19 19 19 20 19 20 20 20 21 21 21 22 21 21 21 21 21 21 20 21 21 19 20 21 21 21 21 21 20 20 20 20 20 17 13 12 14 13 16 14 15 14 13 13 14 14 13 11 11 11 9 9 9 10 10 10 9 10 9 7 6 5 3 2 1 1 1 0 11 11 9 9 9 8 11 10 6 6 7
5 4 6 6 6 11 18 18 19 19 19 19 19 20 19 21 21 21 22 22 22 21 21 20 21 20 20 21 20 19 21 21 21 21 20 20 20 21 22 20 17 12 13 16 17 16 16 15 13 16 15 15 12 12 11 11 10 9 9 10 11 11 11 10 8 6 6 3 2 1 0 0 1 1 5 10 9 8 6 8 8 5 5 5 6
6 6 5 6 6 15 17 18 18 19 19 19 19 19 19 19 21 21 20 21 21 22 22 22 21 20 20 21 21 21 20 21 21 20 20 20 20 21 21 21 21 19 14 12 16 18 15 14 15 15 16 14 14 12 12 12 11 11 10 11 11 12 11 10 7 6 4 2 2 0 1 1 1 2 4 6 7 8 9 8 8 7 7 7 9
5 5 5 5 7 13 17 17 18 19 19 19 19 19 19 19 20 20 20 21 21 21 22 21 22 21 21 21 21 21 21 20 20 21 19 19 20 20 21 21 20 20 19 15 13 20 18 17 18 18 15 15 14 12 13 12 12 12 11 11 11 12 12 10 7 5 3 1 2 1 2 3 2 3 5 8 8 8 7 4 3 7 5 8 9
6 6 5 6 7 15 16 17 18 18 18 20 20 20 20 20 19 20 20 21 21 22 22 21 21 22 21 21 21 21 21 21 19 19 19 18 19 19 19 20 20 20 21 20 18 13 20 18 20 16 15 15 15 14 14 13 12 12 12 12 12 12 12 10 6 4 3 2 1 2 4 6 3 3 8 8 9 9 5 5 9 9 9 8 9
6 6 5 5 8 13 16 17 18 18 19 20 20 20 20 20 20 20 21 22 22 23 23 22 22 21 21 22 21 20 21 21 21 19 17 18 19 19 19 19 19 20 21 19 19 16 14 19 19 17 17 15 15 15 14 14 13 13 13 13 12 12 11 9 5 4 3 1 2 3 4 4 4 5 12 10 10 10 7 8 8 10 9 10 10
6 6 5 5 5 11 15 16 17 17 19 20 20 20 20 20 20 20 21 22 23 23 24 23 23 21 21 20 21 20 19 20 20 19 19 18 18 18 19 19 18 18 19 19 19 20 14 16 20 22 22 16 17 16 14 15 14 14 13 14 12 11 9 9 4 4 3 3 3 3 4 5 5 10 12 11 12 12 10 11 11 10 11 11 11
6 6 5 5 5 10 13 15 17 17 18 19 19 20 20 20 20 20 21 23 23 23 24 24 24 23 21 20 20 20 18 19 19 19 18 18 18 18 18 18 18 18 18 19 20 19 19 16 19 19 19 18 15 16 16 15 14 14 14 13 13 10 9 7 5 4 3 3 3 4 5 5 5 12 13 13 12 12 12 12 12 12 12 12 10
4 6 6 5 5 5 12 13 15 16 17 18 18 19 20 20 20 20 21 22 22 23 24 25 24 24 23 21 19 19 20 18 18 19 19 19 18 18 17 18 17 17 17 18 19 19 20 19 14 20 17 17 17 17 16 14 14 15 13 13 11 10 9 5 4 3 4 3 3 4 5 5 8 13 13 9 11 10 12 12 13 13 13 11 9
3 5 5 5 5 5 5 9 13 15 16 16 17 18 19 20 20 20 21 21 22 22 23 24 24 23 23 22 20 18 17 18 18 19 18 19 18 17 16 17 18 17 16 16 17 18 19 19 19 13 19 20 20 15 15 16 15 15 13 11 11 10 10 6 5 3 4 4 3 3 5 4 10 12 12 10 12 12 11 10 12 12 13 12 11
4 4 4 5 5 4 5 5 8 14 13 15 15 16 18 19 19 19 20 21 22 22 22 24 24 24 22 21 21 18 17 17 18 18 18 18 17 16 16 17 16 16 16 15 16 15 18 18 17 14 20 21 19 19 13 16 17 15 12 12 11 11 10 7 5 3 3 4 3 3 4 4 8 11 11 10 10 10 10 12 13 13 10 11 12
4 3 4 5 5 5 5 5 6 6 6 9 12 15 16 18 18 19 19 20 21 22 23 24 25 23 23 21 19 18 17 17 16 16 17 17 17 16 16 16 15 15 15 15 16 16 17 18 17 18 17 19 19 21 18 15 16 13 11 11 11 10 9 8 4 3 3 3 3 3 3 5 9 10 12 10 10 10 10 11 12 12 11 12 11
4 4 4 4 5 5 6 6 5 5 7 6 7 9 16 16 18 18 19 19 20 21 21 22 24 24 22 20 19 18 17 16 15 15 17 17 17 17 15 15 15 15 15 15 17 17 16 17 16 18 14 18 16 20 17 15 12 12 12 11 11 10 10 6 4 3 2 1 2 3 4 7 10 12 12 12 11 11 10 10 10 10 13 11 11
4 4 5 4 4 5 5 6 6 6 6 7 7 7 10 17 17 17 18 18 19 19 20 21 23 23 20 19 18 14 12 11 15 14 15 17 16 14 15 15 16 16 16 16 16 17 17 15 14 16 17 14 18 20 18 14 15 14 12 12 10 9 5 3 4 3 2 1 0 2 5 10 12 12 13 13 12 11 10 10 10 10 10 13 10
5 6 4 5 6 5 7 6 7 7 7 7 7 7 8 15 12 14 17 17 17 18 19 19 20 17 16 16 16 10 8 7 9 8 14 11 15 16 16 16 16 17 17 16 16 16 17 16 13 14 15 13 15 18 16 17 14 12 13 13 11 5 4 4 4 3 2 1 1 2 6 11 14 14 13 13 12 11 11 10 10 9 9 12 13
7 7 7 5 6 6 6 7 7 8 8 7 6 6 7 10 9 8 8 11 11 14 11 12 17 10 14 11 9 9 8 7 8 10 8 11 13 17 16 16 16 16 16 16 15 15 16 16 13 13 13 13 21 10 9 11 12 11 11 13 7 5 4 4 4 3 3 2 2 3 6 8 12 14 13 12 13 12 11 11 11 11 12 12 12
7 6 7 7 5 6 5 6 7 7 8 7 6 6 7 6 8 9 8 11 10 10 9 11 9 9 9 8 8 7 8 8 8 10 11 14 13 15 15 15 16 16 16 15 14 14 14 15 13 11 12 13 7 5 6 7 6 13 13 8 5 4 4 5 4 3 3 2 2 4 5 7 10 13 14 11 13 14 12 12 11 12 11 11 11
6 6 7 7 5 5 6 5 6 7 7 7 7 7 6 7 7 7 8 7 8 8 9 11 8 9 11 8 8 9 9 8 12 14 13 8 8 12 14 14 15 15 17 13 12 11 13 13 11 10 8 4 4 7 7 6 5 6 6 6 6 6 6 4 4 3 2 1 1 2 1 3 6 9 13 14 11 13 11 12 12 11 11 10 13
5 6 6 6 6 4 5 7 6 5 6 7 7 8 7 7 7 8 8 8 8 8 5 9 8 11 11 9 9 10 9 8 8 8 7 7 7 7 6 6 6 7 12 8 7 6 6 6 4 4 3 2 1 5 7 7 6 7 6 6 6 6 6 4 4 3 2 2 4 7 5 3 4 6 9 11 9 16 12 11 12 12 12 14 13
3 4 7 7 7 5 4 5 5 5 5 5 6 7 7 7 7 8 8 7 7 8 6 5 8 10 10 10 10 9 9 8 8 8 8 7 7 6 6 6 6 6 7 7 7 5 5 5 4 3 3 2 3 3 5 8 8 8 7 7 6 6 6 4 4 4 3 3 5 10 10 8 5 4 8 9 10 10 11 12 13 13 14 14 15
6 7 6 6 6 4 4 4 5 5 5 5 5 5 6 6 6 7 8 9 8 8 7 5 6 9 9 9 10 9 9 9 9 8 8 7 7 6 5 5 6 6 6 6 7 6 4 5 4 3 3 3 4 5 7 9 10 10 9 8 7 6 7 5 4 4 4 4 5 11 10 10 9 6 6 7 9 12 14 15 16 16 16 16 16
4 7 6 6 6 6 4 4 5 4 5 5 5 6 6 7 6 6 7 9 10 8 8 7 6 7 9 8 9 8 8 9 8 8 8 7 6 6 5 5 5 6 6 5 6 6 5 5 3 1 1 2 3 6 4 6 8 9 9 9 8 7 6 5 4 5 4 4 4 9 11 11 10 9 10 9 7 9 12 17 18 19 19 18 18
5 6 6 6 7 5 4 5 5 5 4 5 5 5 6 6 6 7 7 9 8 9 8 6 5 5 8 9 8 8 7 8 8 8 7 8 6 6 5 5 4 6 6 6 5 5 5 5 0 3 4 5 7 7 5 8 7 6 8 7 6 7 7 5 5 5 5 4 4 7 13 13 12 12 12 11 10 10 11 13 16 18 20 21 20
5 6 6 6 6 5 5 5 5 6 5 4 5 5 6 7 6 7 7 7 8 9 10 7 6 6 5 8 9 8 8 8 10 9 10 9 7 6 5 5 4 5 5 5 4 4 5 5 1 4 7 7 8 8 8 8 9 8 7 8 7 6 6 6 6 5 6 5 5 5 12 13 14 13 13 13 13 13 14 14 15 17 19 21 22
4 6 6 6 5 5 6 4 4 4 4 4 5 5 5 6 6 6 7 7 8 9 9 9 7 6 5 7 7 7 8 7 9 10 9 7 6 6 6 5 4 4 4 4 4 3 3 6 7 7 8 9 8 6 8 9 8 9 9 8 7 7 8 7 7 5 5 5 5 5 6 12 13 14 13 13 14 14 16 15 14 15 18 20 22
4 6 5 5 6 6 6 5 4 4 4 5 5 5 6 6 5 6 6 7 8 8 8 9 10 8 7 7 8 7 8 8 9 9 9 8 8 8 7 5 4 3 3 2 4 6 7 8 9 9 8 9 9 8 7 10 8 8 10 10 7 6 6 7 7 6 5 5 5 5 5 6 11 13 14 14 15 16 17 16 14 13 16 20 21
5 5 6 6 7 6 5 6 4 4 4 5 6 5 4 5 5 5 6 6 7 7 8 9 9 10 9 9 7 10 8 9 9 9 8 8 8 8 7 6 5 5 6 6 7 7 8 8 9 9 9 8 10 9 9 8 10 7 9 8 7 7 5 4 5 5 5 4 4 5 5 5 5 9 12 14 14 15 17 19 15 11 9 17 18
6 4 3 6 5 4 3 5 4 4 5 4 4 6 5 5 4 5 4 6 6 7 8 8 9 9 11 11 10 9 8 9 9 8 8 8 9 8 8 8 8 7 5 5 8 6 8 9 8 9 8 9 8 8 10 9 8 8 8 7 7 4 4 5 5 5 4 4 4 4 4 4 5 5 6 10 13 15 17 19 18 17 16 16 6
4 5 4 6 6 6 3 4 4 4 4 5 4 5 5 5 5 5 5 4 5 6 6 7 9 9 9 10 12 11 10 10 10 9 8 8 7 8 8 8 7 7 7 7 7 7 8 8 8 11 8 9 9 8 8 9 8 9 8 5 6 5 4 5 4 5 5 4 4 4 4 4 5 5 5 5 8 13 17 18 19 18 19 20 24
5 5 5 4 6 6 4 4 4 5 4 4 4 5 5 4 4 4 5 3 5 6 5 6 7 7 8 9 12 11 10 10 10 9 8 8 7 7 7 7 8 7 7 8 8 8 7 8 7 9 11 8 8 8 7 8 8 9 6 7 6 6 6 6 6 6 4 4 5 4 4 5 5 5 5 5 6 8 15 17 19 21 16 17 19
5 4 5 5 5 6 5 4 5 5 5 6 5 5 6 6 5 4 4 3 4 5 6 5 6 6 7 8 9 10 11 11 10 9 7 8 8 8 8 8 7 6 8 7 8 7 7 8 8 8 7 7 8 10 8 7 8 8 7 8 7 6 7 6 5 5 4 5 5 4 5 5 6 6 5 5 5 6 10 15 16 18 20 13 15
5 4 4 4 5 5 6 5 5 4 3 4 5 5 5 6 5 6 4 3 4 4 5 5 6 6 6 8 9 8 9 10 11 9 7 7 7 7 7 9 7 6 7 7 7 7 8 8 9 9 8 7 7 8 9 7 6 7 7 7 7 6 6 6 5 5 5 6 5 5 5 4 5 6 5 5 6 5 6 10 14 15 16 16 13
4 4 4 3 3 5 4 5 5 5 4 4 4 4 4 4 4 4 5 4 4 4 3 6 6 6 6 6 8 8 9 9 10 10 9 8 8 7 7 8 6 6 7 7 8 8 8 8 10 10 9 8 8 7 7 6 7 7 7 7 6 6 4 5 5 5 5 6 5 5 4 5 5 5 6 6 6 6 7 6 7 7 8 16 16
4 4 4 4 4 4 2 4 4 4 4 4 4 5 4 5 7 6 6 6 6 5 5 5 5 6 6 6 6 7 8 9 9 9 8 8 8 8 7 7 6 6 7 8 7 6 8 9 9 9 9 7 7 6 6 7 7 7 6 5 6 5 5 4 4 5 4 4 5 4 5 5 5 4 5 5 6 6 6 7 6 6 6 10 15
5 3 4 4 3 3 3 5 4 3 3 5 4 3 4 7 3 5 5 6 6 5 5 6 6 6 6 6 7 6 7 7 8 8 8 7 7 6 7 7 6 6 7 7 7 8 7 6 6 6 8 8 5 4 4 2 5 5 3 5 5 5 5 5 6 5 5 4 4 4 5 5 5 5 5 5 5 6 6 6 6 6 6 6 8
6 2 4 5 4 3 4 6 4 3 3 3 3 2 2 1 2 5 3 6 6 6 6 6 6 6 5 6 6 6 7 6 6 6 7 7 7 7 7 7 7 6 6 6 7 7 6 6 4 5 5 4 3 2 2 1 4 3 2 1 2 2 3 3 3 4 4 4 4 4 4 4 4 4 4 4 5 6 6 6 5 6 6 6 6
6 6 5 5 5 4 5 5 5 4 4 3 2 3 2 1 1 3 2 5 3 3 2 5 3 4 4 5 5 6 7 6 6 6 6 6 7 6 6 6 6 5 5 6 6 6 6 6 6 4 4 4 3 2 4 4 2 1 2 2 2 3 0 2 2 3 3 2 2 3 3 3 4 3 3 4 4 4 4 5 5 6 6 6 5
5 5 4 5 4 5 4 4 5 4 4 3 3 3 3 3 3 4 3 4 5 4 4 3 3 5 6 4 4 5 6 5 6 5 5 5 5 6 5 6 6 5 5 5 5 5 5 5 4 4 3 3 3 3 3 4 3 0 2 2 0 1 2 2 3 1 1 1 2 2 2 2 3 4 3 4 4 4 4 3 5 5 5 5 5
6 6 6 4 3 5 5 4 5 4 4 4 4 3 2 2 1 2 2 2 1 2 3 3 2 3 5 5 6 4 4 5 5 5 4 5 4 5 5 5 5 5 4 4 4 3 3 3 3 3 3 3 2 1 2 1 3 2 3 2 2 2 0 2 2 2 0 0 1 1 0 1 1 1 2 1 2 2 2 3 3 3 4 4 5
7 6 4 5 4 6 4 4 4 4 5 5 3 1 1 1 3 4 6 4 5 6 5 6 9 7 5 5 5 2 3 3 4 4 4 4 5 4 4 5 5 6 5 3 3 4 5 4 2 2 3 1 3 2 2 1 2 3 3 2 1 1 1 1 1 2 0 0 1 1 1 1 1 1 1 1 1 1 0 1 1 2 1 2 3
8 5 5 5 5 6 5 4 4 4 4 5 3 1 1 1 2 3 3 3 3 5 4 3 4 6 4 5 5 4 1 2 3 3 4 4 3 4 4 3 3 4 3 5 5 4 3 3 3 3 1 1 2 3 2 2 2 3 1 1 2 1 3 2 1 1 3 1 2 2 1 2 2 2 2 3 2 2 2 2 2 2 1 1 1
7 7 7 6 5 5 5 5 4 4 4 4 3 3 3 3 2 3 3 4 5 7 6 6 3 3 5 6 4 4 3 1 1 2 2 3 3 4 3 3 3 3 3 4 3 3 3 3 3 2 2 2 2 2 0 0 2 1 1 2 2 2 3 1 2 0 1 3 3 1 1 2 2 3 4 3 3 3 3 2 2 2 1 1 1
7 6 6 6 6 5 5 4 6 5 4 4 4 3 3 3 4 3 4 5 5 7 5 4 6 2 4 5 4 4 3 3 1 1 1 1 1 1 2 3 3 3 2 3 2 2 3 3 4 4 3 3 2 1 1 0 1 1 1 1 1 2 2 1 2 2 2 2 4 1 2 2 2 5 5 3 4 3 3 3 2 2 2 2 2
6 5 6 5 5 4 4 4 7 4 4 3 3 4 4 3 4 4 6 7 4 6 3 6 6 3 5 5 3 4 5 4 3 2 2 1 1 0 0 1 1 1 1 1 2 3 3 3 1 1 1 1 2 0 0 1 2 2 2 2 2 1 1 1 1 2 0 1 4 4 2 2 4 3 2 4 4 4 3 3 3 3 3 4 3
5 4 5 4 4 4 4 5 7 4 3 4 3 4 4 4 5 6 6 7 6 5 6 7 5 4 4 6 5 5 3 5 4 3 2 2 2 0 0 0 0 0 0 1 1 1 0 0 1 1 1 0 1 0 0 0 0 1 2 3 4 3 3 2 3 3 3 2 1 4 3 3 3 4 2 2 3 5 5 4 5 5 5 5 4
Wind_Direction
339 330 323 330 335 343 343 342 346 347 347 347 350 348 350 349 345 344 342 342 339 338 338 336 337 338 337 340 340 339 338 341 340 342 332 310 286 275 276 267 264 261 228 225 220 222 213 201 195 199 168 208 159 159 171 179 189 201 162 156 135 135 112 98 82 128 145 150 151 155 152 147 156 147 144 141 131 128 124 117 103 93 69 121 119
315 314 321 330 338 345 343 342 346 348 346 348 353 351 352 347 345 346 341 340 340 339 337 336 336 337 337 335 336 335 335 336 335 335 335 322 308 286 279 268 252 250 251 226 216 216 217 218 195 193 188 196 182 158 163 166 165 172 147 147 136 124 123 126 136 132 129 126 133 145 171 164 159 167 153 147 143 140 135 127 114 102 161 121 104
304 324 329 326 341 343 343 342 348 348 348 352 351 353 350 348 345 347 343 340 341 340 337 334 334 334 333 334 332 331 333 332 332 333 335 335 320 296 279 270 265 254 249 231 217 214 214 214 217 201 193 193 185 169 170 184 154 158 151 147 140 135 131 137 152 158 149 143 146 158 160 135 135 164 165 152 149 145 138 132 133 128 181 128 117
339 330 332 332 337 339 340 342 348 349 349 351 351 351 349 347 344 341 342 343 343 339 338 339 333 331 330 331 329 328 328 330 329 330 329 334 320 314 297 284 270 259 252 256 252 230 213 211 210 208 216 191 182 186 175 173 160 164 158 156 152 145 139 144 162 130 103 107 95 71 45 76 139 177 143 157 144 143 141 137 145 150 132 136 124
341 325 327 328 328 327 335 342 346 348 348 349 349 349 350 346 344 344 340 340 341 341 338 334 333 328 327 327 327 327 326 326 327 327 330 327 324 323 310 281 279 265 257 248 241 248 237 219 210 203 215 189 183 186 141 150 189 169 167 164 159 154 150 152 161 103 101 93 87 72 47 68 76 143 150 152 140 138 143 152 152 154 144 142 142
322 320 328 331 324 320 331 343 345 346 347 349 346 347 347 347 343 343 342 340 339 339 338 335 332 329 322 324 324 323 325 325 324 324 325 326 326 326 317 312 289 266 260 254 249 240 237 244 219 207 203 197 190 185 150 153 181 200 180 177 170 161 163 157 159 115 102 89 77 68 53 35 27 153 149 143 146 138 147 160 163 157 145 136 138
310 313 332 330 327 320 336 342 344 345 346 347 347 347 347 347 345 345 346 340 338 337 336 333 329 327 324 322 320 319 321 322 323 323 322 324 325 326 325 329 317 292 277 264 255 243 250 249 243 219 209 195 198 188 154 162 187 202 203 181 176 170 166 162 159 135 110 91 97 90 71 43 31 74 155 149 147 147 150 155 172 165 147 151 144
321 323 328 327 323 323 336 342 343 344 345 346 347 346 346 346 346 347 346 344 341 338 331 330 327 325 325 322 316 313 315 317 319 323 325 324 325 326 322 325 330 317 273 259 254 248 240 235 251 256 217 208 205 182 172 164 190 195 198 192 182 172 164 170 152 136 126 108 99 98 90 321 318 276 232 163 166 178 179 175 177 174 152 146 169
323 319 323 326 321 324 341 343 344 343 344 346 346 345 345 345 346 346 345 343 340 336 333 331 327 325 323 320 318 315 312 312 315 319 323 325 321 320 319 323 328 328 322 289 260 256 247 249 248 265 243 217 209 191 167 183 187 194 195 194 187 176 174 169 159 143 107 122 111 159 270 284 273 281 279 177 190 172 190 188 184 162 179 171 192
313 318 319 319 319 323 346 345 344 344 344 345 346 345 345 344 343 344 343 342 341 337 333 331 327 324 322 318 316 313 310 308 310 312 318 321 320 316 315 320 324 322 318 316 274 242 239 232 231 232 259 237 202 184 196 182 188 191 192 193 188 183 178 170 164 124 122 129 137 212 254 218 232 249 261 188 195 205 112 92 115 122 149 184 198
322 321 320 324 316 340 347 347 346 345 345 345 345 345 344 342 340 340 341 341 341 338 335 332 328 324 320 316 313 311 311 308 305 303 311 314 314 315 315 315 317 318 317 323 328 281 247 238 229 223 231 253 226 199 194 185 190 191 192 192 187 185 178 166 136 131 132 158 209 190 240 233 210 226 248 200 197 205 127 135 145 147 167 193 201
321 319 320 322 330 335 347 348 347 347 347 348 346 344 342 341 340 339 340 340 340 339 337 333 329 325 322 319 315 312 312 311 307 304 306 308 309 312 315 314 312 312 317 319 317 319 276 247 240 223 226 230 257 205 197 186 186 191 192 190 188 187 178 152 132 139 143 186 230 207 204 221 212 228 229 208 193 197 169 176 181 173 184 196 211
316 318 322 325 328 333 346 349 349 349 350 349 346 344 342 340 339 338 340 341 340 339 338 334 330 328 324 319 316 312 309 308 309 306 304 306 304 307 311 311 308 310 311 311 313 315 317 247 230 222 210 212 224 224 191 180 188 192 191 189 189 187 175 150 144 146 157 194 215 201 193 199 203 227 226 215 193 193 194 197 195 198 201 203 212
311 320 326 328 325 335 339 346 351 351 352 349 346 342 341 340 339 338 340 340 340 340 339 336 332 329 327 322 317 313 307 306 307 305 301 301 303 304 305 304 305 308 306 305 308 313 317 314 240 233 221 211 212 243 193 182 193 194 190 191 187 186 168 150 146 152 163 191 195 186 188 193 197 225 226 216 197 199 196 203 203 204 207 210 214
304 318 322 324 324 322 334 340 347 350 350 347 345 342 341 341 339 338 340 340 340 340 340 338 335 330 328 324 319 314 311 306 304 305 304 302 300 302 299 297 301 304 304 303 306 309 317 316 288 233 227 218 217 229 206 184 193 197 192 189 182 175 161 145 147 157 165 174 186 180 187 190 210 222 229 220 246 208 206 208 207 208 211 205 217
292 300 317 316 321 319 326 334 337 344 345 343 342 342 342 341 340 338 339 339 339 339 340 340 338 332 328 325 320 315 313 311 306 306 308 309 306 301 297 297 299 300 301 300 300 308 307 313 319 261 222 219 209 215 225 188 198 198 189 184 178 165 159 149 152 162 155 159 175 178 186 196 219 226 227 228 222 224 226 227 226 223 218 197 216
308 317 323 322 322 322 326 329 328 338 336 336 337 339 340 341 339 338 338 339 338 338 340 340 338 335 329 325 322 318 315 311 311 312 310 307 305 303 298 295 296 297 300 303 301 302 304 307 313 301 223 218 202 204 208 209 192 196 186 179 170 162 159 150 154 168 145 151 163 171 181 209 236 230 226 232 229 243 234 226 231 239 226 220 211
309 313 325 316 324 329 328 327 325 324 325 329 331 335 337 337 337 338 336 336 337 337 337 340 341 336 332 326 321 319 317 317 316 312 311 311 310 305 298 297 298 298 301 301 301 302 298 299 309 311 252 221 207 202 197 209 198 188 179 171 164 161 160 151 154 176 151 139 152 172 179 219 235 230 228 230 235 238 243 243 239 231 223 225 228
311 323 316 329 330 326 325 324 324 324 325 329 329 328 332 331 335 335 334 334 334 335 334 336 338 338 335 329 324 321 323 319 317 316 317 313 306 305 306 301 297 300 300 300 300 297 294 294 305 306 296 227 211 199 196 200 202 186 172 162 161 159 159 147 151 167 177 124 140 171 186 221 234 230 234 233 237 241 244 245 242 230 235 222 220
312 320 322 314 318 327 329 328 330 333 332 330 325 325 323 331 334 333 332 332 332 333 332 335 339 338 337 334 330 329 325 322 319 320 315 313 313 309 301 299 300 299 300 299 297 294 292 292 297 301 306 239 209 198 190 197 199 183 162 155 154 145 134 118 145 162 152 177 159 183 218 222 231 229 236 235 232 238 244 241 237 230 219 228 207
332 325 328 332 337 339 335 336 332 333 330 329 326 328 325 332 328 327 330 329 333 333 334 332 340 337 336 333 332 327 322 317 313 310 316 314 309 306 304 301 299 297 296 295 294 294 292 290 291 295 293 258 230 206 180 196 200 169 155 149 142 130 118 134 142 142 131 167 198 229 236 229 230 231 241 242 234 233 238 241 239 209 220 222 208
323 323 324 334 341 340 339 332 331 330 328 327 323 324 325 326 324 324 323 327 328 331 332 332 337 326 334 331 325 322 317 313 310 315 310 308 309 308 303 300 298 297 294 294 294 293 290 290 292 292 289 287 215 205 192 192 178 160 143 141 141 129 134 129 125 132 141 155 186 223 232 241 241 239 244 249 250 238 240 241 242 240 224 227 218
325 322 314 327 335 325 327 328 322 325 326 326 324 325 325 323 327 327 324 327 326 330 331 338 327 325 328 326 320 313 313 312 311 308 307 307 305 302 303 301 299 298 295 293 293 295 291 287 288 292 294 298 223 170 175 177 177 161 153 143 125 121 122 121 121 128 141 158 181 225 221 232 241 241 245 250 252 254 246 248 248 248 248 238 234
304 302 304 309 322 323 317 316 320 325 332 327 330 330 328 333 329 326 323 326 328 329 338 344 326 328 331 326 323 317 314 313 311 310 310 306 298 297 302 304 302 301 296 294 293 294 292 288 289 296 282 289 205 173 159 157 152 149 143 133 125 130 123 113 112 111 95 68 33 81 178 241 247 255 248 245 245 258 248 252 255 254 253 246 245
277 298 301 300 310 312 324 320 323 324 329 327 335 330 329 333 331 328 328 330 327 331 335 338 334 333 328 328 324 322 316 308 307 305 298 296 291 292 292 291 287 289 294 288 282 287 293 284 281 298 274 220 207 170 152 153 143 143 127 128 129 123 113 116 120 113 84 50 24 31 35 2 295 285 275 269 239 247 253 252 254 253 246 241 240
285 308 300 307 307 316 310 304 313 317 317 323 324 315 325 332 335 328 328 329 327 333 327 336 340 333 329 327 326 322 317 307 305 301 296 284 288 286 291 292 292 291 290 289 279 278 289 285 283 252 261 202 159 158 165 156 150 141 140 134 133 125 113 114 105 95 74 55 32 38 37 41 29 317 300 290 286 278 274 271 264 256 251 246 240
321 292 290 286 293 300 303 308 312 318 321 322 326 322 324 324 323 324 336 330 331 328 339 330 341 334 323 323 326 322 317 309 304 296 294 293 292 283 285 286 288 286 280 278 283 278 280 284 262 213 207 193 167 176 172 165 154 151 146 135 129 126 117 122 112 105 83 62 38 34 41 42 42 34 7 341 314 292 280 273 269 267 257 247 246
304 284 289 288 292 295 302 317 315 324 320 330 331 332 326 330 329 333 335 326 332 329 330 336 330 339 329 321 323 319 311 311 303 295 292 296 286 278 274 275 276 280 277 271 275 285 285 274 258 173 115 152 196 183 175 148 152 145 129 128 124 125 124 117 112 99 85 69 53 38 36 37 34 33 29 18 353 330 307 289 274 264 261 254 246
294 292 290 303 294 298 322 311 311 317 316 328 333 327 325 327 335 338 335 329 333 329 310 315 332 340 338 324 318 319 312 309 302 298 295 295 289 275 271 263 270 270 273 273 273 292 289 277 357 122 96 74 66 33 74 84 62 74 105 107 115 119 115 104 93 86 81 72 49 41 41 34 30 28 24 19 8 352 329 312 296 278 262 256 243
265 279 291 285 291 306 311 302 312 310 317 331 323 334 334 332 334 333 326 330 331 330 323 323 335 342 338 332 321 313 314 317 316 315 311 303 298 287 271 262 259 260 268 279 270 283 286 293 74 81 87 79 67 90 74 58 71 64 58 86 73 72 85 89 76 67 64 57 45 32 32 37 30 24 22 19 13 3 350 332 306 283 272 257 249
294 288 290 286 294 316 301 305 307 312 328 330 322 330 331 330 329 328 326 331 327 333 336 331 335 342 340 334 317 314 323 320 324 327 324 306 303 300 305 288 263 258 251 267 268 275 21 34 67 76 74 69 68 62 75 82 60 62 60 52 58 64 72 76 71 55 43 35 40 33 24 27 27 23 21 20 13 5 352 339 320 291 266 259 251
283 285 285 296 311 296 296 302 305 307 337 327 323 336 338 330 328 332 329 325 331 337 336 340 338 339 345 341 340 325 332 332 333 323 333 338 339 340 331 349 354 313 248 261 22 50 62 63 60 61 64 77 72 63 62 82 82 74 69 66 48 50 60 74 67 57 58 45 34 33 31 28 17 17 17 20 13 9 357 349 336 299 259 247 247
260 247 280 308 290 289 301 302 314 315 335 324 320 321 322 327 331 336 325 331 333 337 340 342 339 338 340 350 348 350 347 340 337 330 345 347 346 349 350 351 6 12 47 60 59 50 60 69 74 80 76 79 76 71 74 69 65 53 75 72 62 62 25 34 58 56 46 40 30 23 25 30 24 12 7 13 18 11 5 6 6 359 282 249 242
271 283 310 292 286 296 290 300 307 323 322 321 321 331 330 323 327 328 333 336 340 342 339 338 342 344 341 343 351 352 352 344 343 337 359 357 358 2 6 7 0 2 31 72 76 58 70 66 64 68 63 69 68 64 76 68 65 66 57 68 86 59 60 47 44 56 62 50 37 29 21 32 35 18 2 360 8 19 14 12 18 45 56 60 24
265 284 265 271 302 295 303 305 309 317 323 321 330 327 326 327 326 331 338 337 335 341 338 336 343 344 343 343 347 349 353 351 352 351 357 6 7 4 7 5 360 2 7 17 64 70 80 82 91 87 76 76 71 65 72 75 73 63 56 40 50 49 45 59 54 54 51 54 52 22 15 30 32 24 10 359 354 5 15 13 19 36 55 66 66
258 264 281 288 295 296 300 298 312 320 323 320 328 322 318 317 313 316 331 337 336 345 339 336 334 335 345 344 345 344 352 352 354 356 2 1 3 10 13 11 12 19 22 31 37 42 52 70 64 96 102 79 80 73 75 80 74 71 58 58 53 48 49 44 48 52 41 39 45 31 12 28 31 24 10 0 1 358 7 14 18 20 39 70 80
272 282 273 296 297 296 313 317 310 316 319 327 330 325 326 329 328 320 318 331 345 341 336 334 340 344 348 348 348 345 348 352 356 356 0 8 11 9 3 8 17 32 43 37 44 36 45 65 57 39 56 92 78 88 69 61 71 69 61 52 44 43 47 39 33 32 32 48 38 26 18 21 25 24 7 3 6 356 360 13 23 21 15 40 83
281 270 268 259 273 295 301 303 300 303 303 314 320 318 317 321 327 328 323 333 347 330 333 344 354 351 349 354 348 349 349 349 353 356 2 12 18 14 10 12 15 25 47 50 51 52 57 62 62 43 45 65 68 72 75 69 64 66 61 57 50 50 46 44 35 32 27 28 31 27 17 18 24 16 5 5 4 358 0 12 16 21 12 25 50
283 288 289 276 280 286 298 302 310 314 324 317 309 309 315 319 307 337 340 348 357 333 350 355 357 347 359 353 354 353 351 350 354 357 1 8 14 14 18 18 24 29 39 46 47 53 62 71 81 79 67 69 80 75 82 85 78 71 64 60 61 55 55 58 47 41 34 23 19 15 1 20 23 16 12 7 355 1 8 7 15 10 7 11 26
290 298 301 302 284 285 296 293 286 301 315 324 334 334 341 352 341 342 347 353 343 347 354 3 349 351 348 359 1 356 353 351 355 355 1 7 11 12 18 19 29 42 52 46 38 35 59 67 68 86 88 72 68 87 96 97 89 74 74 64 63 69 62 58 61 59 46 33 19 11 14 14 20 12 17 5 2 2 6 8 6 8 5 4 20
279 288 314 300 286 276 329 298 289 316 333 324 337 4 339 336 345 355 331 324 329 339 347 350 352 344 345 359 0 359 357 357 358 356 5 1 5 7 19 22 20 35 50 54 60 68 63 58 75 61 84 93 64 37 32 27 85 73 75 88 67 58 60 51 46 40 40 36 33 29 17 14 12 19 11 7 3 6 8 10 2 7 7 3 4
314 331 294 281 287 288 261 266 292 297 273 238 248 270 221 197 230 271 287 302 319 345 336 342 344 334 347 360 356 354 359 2 358 2 6 8 6 9 16 19 21 31 48 51 55 61 51 52 60 74 28 70 86 356 348 329 45 117 114 14 56 93 67 67 68 70 49 32 23 30 34 22 18 3 6 8 14 12 9 4 4 9 8 5 4
277 287 277 282 277 267 248 248 261 269 265 244 222 246 231 212 172 260 272 298 256 225 255 281 313 327 346 357 352 356 356 355 2 3 14 8 9 12 10 8 25 25 41 40 40 42 40 44 43 78 86 37 69 9 11 20 117 63 167 88 355 9 339 71 88 60 52 60 33 26 24 26 8 9 358 7 16 10 2 1 6 8 5 5 358
294 290 271 255 264 258 255 249 252 248 260 250 236 235 233 241 231 244 254 193 261 309 312 292 321 352 354 347 357 356 349 348 356 5 9 15 14 14 360 16 17 20 32 49 45 49 48 51 57 55 90 69 21 25 6 43 89 19 30 70 146 114 1 351 324 311 128 66 65 29 29 16 11 12 12 19 9 4 359 6 7 5 360 356 358
290 279 280 264 249 256 250 246 250 251 256 258 247 263 296 332 295 263 227 309 324 306 307 322 7 337 331 354 336 336 342 343 352 0 4 10 10 13 16 8 19 14 24 35 32 35 46 51 55 66 66 125 96 106 9 48 71 352 122 81 17 24 271 281 346 276 50 28 73 117 109 27 48 21 29 2 357 351 352 360 6 1 358 354 354
284 274 267 275 268 274 267 263 261 262 257 260 238 209 232 285 358 7 337 356 327 331 334 325 330 335 315 296 306 331 333 341 351 353 1 6 11 9 14 20 18 12 16 21 21 19 19 29 25 102 77 58 136 104 90 46 79 60 52 88 133 147 276 259 58 308 327 278 257 210 206 163 223 247 226 240 245 256 205 331 314 332 328 345 340
284 296 298 284 279 273 272 262 256 257 258 265 253 226 238 214 229 228 214 235 244 276 232 235 251 288 292 293 292 311 304 346 340 352 355 354 9 11 14 21 18 18 12 32 28 11 350 3 358 42 63 53 33 50 81 139 116 70 69 78 96 129 135 115 251 290 347 308 228 251 238 219 224 224 250 242 239 236 238 209 225 214 214 171 273
289 306 297 297 287 288 291 285 274 265 251 257 261 224 225 238 230 239 229 231 218 250 274 282 249 267 303 299 305 295 315 298 314 337 350 349 358 5 11 19 27 9 31 37 28 349 355 1 17 17 33 34 36 65 82 13 124 97 114 122 101 90 142 94 155 146 185 290 310 306 270 292 272 248 237 241 232 237 239 239 245 252 220 213 198
291 287 289 292 297 296 294 289 279 267 266 239 234 235 222 218 220 224 258 248 238 251 271 278 289 286 295 298 311 307 304 312 288 292 309 334 354 354 3 20 25 6 34 25 27 31 41 28 14 18 8 6 28 53 80 161 68 158 124 85 112 147 174 175 152 144 168 193 272 270 293 323 292 258 244 241 246 245 240 240 246 236 253 261 246
284 282 279 287 290 301 302 303 283 267 261 247 226 224 218 220 216 233 238 264 254 269 272 285 291 307 302 295 294 301 313 319 318 309 308 276 290 248 75 40 3 320 37 17 21 28 18 26 25 359 347 22 353 21 204 211 215 217 211 167 162 156 172 138 161 126 66 194 239 285 270 300 323 293 264 244 251 246 239 238 240 246 244 244 246
287 281 290 289 292 298 304 305 283 279 258 249 217 231 210 202 218 223 227 242 256 258 288 287 283 303 298 302 307 301 289 285 298 294 270 261 274 233 220 271 228 198 109 31 18 3 331 21 350 36 42 59 335 24 8 351 278 238 214 192 210 196 197 204 200 208 180 200 300 271 274 204 205 292 282 266 252 245 240 233 227 234 228 231 228